This is the latest recevied weather packets stored in our database for station/object WE3WEE. If no packets are shown the sender has not sent any weather packets the latest 10 day(s).
| Time | Temp. | Humidity | Pressure | Rain* | Wind** | Luminosity | Snow |
|---|---|---|---|---|---|---|---|
| 1777087592 | 11.11° C | 64% | 1010.6 hPa | 0 mm | - | - | - |
| 1777087292 | 11.11° C | 62% | 1010.6 hPa | 0 mm | - | - | - |
| 1777086992 | 11.11° C | 66% | 1010.6 hPa | 0 mm | - | - | - |
| 1777086687 | 11.11° C | 69% | 1011.7 hPa | 0 mm | - | - | - |
| 1777086383 | 11.11° C | 68% | 1011.7 hPa | 0 mm | - | - | - |
| 1777086079 | 11.11° C | 69% | 1011.7 hPa | 0 mm | - | - | - |
| 1777085776 | 11.11° C | 66% | 1010.6 hPa | 0 mm | - | - | - |
| 1777085471 | 11.11° C | 63% | 1010.6 hPa | 0 mm | - | - | - |
| 1777085168 | 11.67° C | 63% | 1010.6 hPa | 0 mm | - | - | - |
| 1777084863 | 11.67° C | 62% | 1010.6 hPa | 0 mm | - | - | - |
| 1777084560 | 11.67° C | 63% | 1010.6 hPa | 0 mm | - | - | - |
| 1777084255 | 11.67° C | 62% | 1010.6 hPa | 0 mm | - | - | - |
| 1777083950 | 11.67° C | 67% | 1010.6 hPa | 0 mm | - | - | - |
| 1777083647 | 12.22° C | 64% | 1010.6 hPa | 0 mm | - | - | - |
| 1777083344 | 12.78° C | 63% | 1010.6 hPa | 0 mm | - | - | - |
| 1777083040 | 13.33° C | 61% | 1010.6 hPa | 0 mm | - | - | - |
| 1777082735 | 13.33° C | 60% | 1010.6 hPa | 0 mm | - | - | - |
| 1777082431 | 13.33° C | 53% | 1010.6 hPa | 0 mm | - | - | - |
| 1777082131 | 13.33° C | 53% | 1010.6 hPa | 0 mm | - | - | - |
| 1777081826 | 13.33° C | 59% | 1010.6 hPa | 0 mm | - | - | - |
| 1777081522 | 13.33° C | 59% | 1010.6 hPa | 0 mm | - | - | - |
| 1777081219 | 14.44° C | 61% | 1010.6 hPa | 0 mm | - | - | - |
| 1777080917 | 14.44° C | 53% | 1010.6 hPa | 0 mm | - | - | - |
| 1777080612 | 13.89° C | 54% | 1010.6 hPa | 0 mm | - | - | - |
| 1777080308 | 13.33° C | 57% | 1010.6 hPa | 0 mm | - | - | - |
* Rain latest hour (hover to see other rain measurements)
** Current wind speed in m/s (hover to see current wind gust speed)